User: anonymous   Login
Location: Unspecified
(0.0000°N, 0.0000°E)
Time: 16:16:11
(UTC+00:00)
Language:

UFO 10 - Orbit

View from above orbital plane
View from above orbital plane
View from above satellite
View from above satellite

Ground track
Ground track

The orbit data is extracted from the following two-line orbital elements,

1 25967U 99063A   18271.14671773 0.00000000  00000-0  00000-0 0    04
2 25967   7.1421  37.5002 0007518 173.9323 186.0904  1.00270000    00
Epoch (UTC): 28 September 2018 03:31:16
Eccentricity: 0.0007518
inclination: 7.1421°
perigee height: 35755 km
apogee height: 35818 km
right ascension of ascending node: 37.5002°
argument of perigee: 173.9323°
revolutions per day: 1.00270000
mean anomaly at epoch: 186.0904°
orbit number at epoch: 0

The dashed part of the orbit path shows where the satellite is in the earth's shadow,  

DLR